Location: Homewood
(41.1836°S, 175.9581°E)
Time: 14:10:35
(UTC+00:00)

NOSS 3-3 (C) - Visible Passes

Search period start: 12 July 2024 00:00
Search period end: 22 July 2024 00:00
Orbit: 728 x 1487 km, 63.4° (Epoch: 25 June)

Date Brightness Start Highest point End Pass type
(mag) Time Alt. Az. Time Alt. Az. Time Alt. Az.
12 Jul 6.6 15:57:07 10° SSE 15:57:07 10° SSE 15:57:11 10° SSE visible
12 Jul 6.0 17:45:08 10° SSW 17:49:35 18° SSE 17:53:33 10° ESE visible
13 Jul 6.2 17:01:37 11° S 17:04:23 14° SSE 17:07:37 10° SE visible
13 Jul 4.8 18:51:13 10° SSW 18:57:20 44° SE 19:02:31 10° ENE visible
14 Jul 6.4 16:18:42 12° S 16:19:04 12° S 16:21:29 10° SSE visible
14 Jul 5.3 18:06:55 10° SSW 18:12:34 30° SE 18:17:27 10° E visible
15 Jul 5.8 17:23:16 12° SSW 17:27:38 22° SSE 17:32:02 10° E visible
16 Jul 6.1 16:40:24 14° S 16:42:32 17° SSE 16:46:16 10° ESE visible
16 Jul 4.3 18:28:48 10° SSW 18:35:06 59° SE 18:40:23 10° NE visible
17 Jul 6.4 15:57:35 13° SSE 15:57:35 13° SSE 16:00:14 10° SE visible
17 Jul 5.0 17:45:04 12° SSW 17:50:27 38° SE 17:55:33 10° ENE visible
18 Jul 5.5 17:02:18 18° S 17:05:37 27° SE 17:10:21 10° E visible
18 Jul 3.8 18:51:01 10° SW 18:57:05 62° WNW 19:02:16 10° NNE visible
19 Jul 5.9 16:19:35 19° SSE 16:20:38 20° SSE 16:24:48 10° ESE visible
19 Jul 3.8 18:07:04 13° SSW 18:12:46 80° SE 18:18:05 10° NE visible
20 Jul 6.6 07:56:55 10° NNE 07:57:51 13° NNE 07:57:51 13° NNE visible
20 Jul 6.4 15:36:55 14° SE 15:36:55 14° SE 15:38:56 10° SE visible
20 Jul 4.5 17:24:25 22° SSW 17:28:15 50° SE 17:33:29 10° ENE visible
21 Jul 6.4 07:14:37 10° NE 07:15:57 13° NE 07:15:57 13° NE visible
21 Jul 6.5 09:01:19 10° NNW 09:03:31 19° NNW 09:03:31 19° NNW visible
21 Jul 5.2 16:41:50 29° S 16:43:32 33° SE 16:48:31 10° ENE visible
21 Jul 4.1 18:29:19 12° SW 18:34:32 43° WNW 18:39:29 10° N visible
